Regional Weather Roundup
Issued by NWS

Home | Current Version | Previous Version | Text Only | Print | Product List | Glossary Off
Versions: 1 2 3 4 5 6 7 8 9 10 11 12 13 14 15 16 17 18 19 20 21 22 23 24 25 26 27 28 29 30 31 32 33 34 35 36 37 38 39 40 41 42 43 44 45 46 47 48 49 50

000
ASUS43 KDTX 301501
RWRMI
MICHIGAN HOURLY REGIONAL WEATHER ROUNDUP
NATIONAL WEATHER SERVICE DETROIT/PONTIAC MI
1100 AM EDT MON MAR 30 2015

NOTE: "FAIR" INDICATES FEW OR NO CLOUDS BELOW 12,000 FEET WITH NO
SIGNIFICANT WEATHER AND/OR OBSTRUCTION TO VISIBILITY.

MIZ047>049-052>055-059>063-066>070-074>076-081>083-301600-
SOUTHEAST LOWER MICHIGAN

CITY           SKY/WX    TMP DP  RH WIND       PRES   REMARKS
ADRIAN         SUNNY     47  26  44 NW21G30   29.96R
ALMA           MOSUNNY   47  31  53 W14G24    29.89R
ANN ARBOR      SUNNY     48  26  42 W18G31    29.92R
BAD AXE        MOSUNNY   42  31  67 W18G28    29.81S
CARO           SUNNY     45  32  60 W17G24    29.83F
DETROIT CITY   SUNNY     48  26  42 W18G25    29.90R
DETROIT        MOSUNNY   49  26  41 W18G26    29.92R
FLINT          MOSUNNY   49  28  44 W23G33    29.89R
GROSSE ILE     SUNNY     48  27  43 W16G22    29.91R
HILLSDALE      SUNNY     47  27  44 W17G24    29.96R
HOWELL         SUNNY     46  28  50 W18G29    29.90S

CITY           SKY/WX    TMP DP  RH WIND       PRES   REMARKS
JACKSON        SUNNY     46  26  45 W17G24    29.94R
LAMBERTVILLE   SUNNY     46  30  53 W10G22    29.97R
LANSING        SUNNY     46  28  49 W21G28    29.93R
LAPEER         FAIR      45  28  51 NW13G25   29.86R
MASON          SUNNY     45  27  49 W15G28    29.93R
MONROE         SUNNY     46  30  53 W17       29.93R
PONTIAC        SUNNY     45  27  49 W21       29.88R
PORT HOPE        N/A     42  30  62 W13G23    29.77R
PORT HURON     SUNNY     45  30  57 W14G21    29.86R
TRI CITIES     MOSUNNY   47  30  51 W17G31    29.85S
TROY           SUNNY     47  26  43 W16G26    29.90S
SAGINAW HB     MOSUNNY   45  32  61 W21G26    29.84S
$$
MIZ043>046-050>051-056>058-064>065-071>073-077>080-301600-
SOUTHWEST LOWER MICHIGAN

CITY           SKY/WX    TMP DP  RH WIND       PRES   REMARKS
BATTLE CREEK   SUNNY     48  28  46 W18G24    29.97R
BENTON HARBOR  SUNNY     44  32  62 W17       30.03R
BIG RAPIDS     SUNNY     44  30  57 W13G26    29.87R
COLDWATER      SUNNY     47  27  45 W20G26    29.97S
FREMONT        FAIR      45  29  53 W16G22    29.92R
HOLLAND        SUNNY     45  32  60 W16G25    29.99R
GRAND RAPIDS   MOSUNNY   47  30  51 W17       29.95R
IONIA          PTSUNNY   47  30  51 W16G24    29.91S
KALAMAZOO      SUNNY     48  28  46 W21G26    29.99R
LUDINGTON      SUNNY     42  31  66 W12G20    29.93R
MARSHALL       SUNNY     47  26  43 W18G29    29.95S
MOUNT PLEASANT MOSUNNY   46  31  55 W20G28    29.86R
MUSKEGON       MOSUNNY   44  30  57 W17G30    29.96R
SOUTH HAVEN    SUNNY     44  31  61 W15       30.02R
$$
MIZ016>042-301600-
NORTHERN LOWER MICHIGAN

CITY           SKY/WX    TMP DP  RH WIND       PRES   REMARKS
ALPENA         LGT SNOW  35  32  88 NW18G26   29.79R VSB 1   WCI  24
BEAVER ISLAND  PTSUNNY   35  30  85 NW6       29.85R WCI  29
BELLAIRE       CLOUDY    37  28  69 W7G17     29.87R WCI  31
CADILLAC       CLOUDY    39  29  66 W23G33    29.84R WCI  29
CHARLEVOIX     MOSUNNY   35  31  85 W13       29.88R WCI  27
FRANKFORT      PTSUNNY   42  29  61 NW12G20   29.90R
GAYLORD        CLOUDY    32  27  81 W14G24    29.80R WCI  22
GRAYLING       CLOUDY    36  28  74 W15G22    29.83R WCI  26
HARBOR SPRINGS MOSUNNY   35  25  67 NW17G31   29.83R WCI  25
HOUGHTON LAKE  CLOUDY    38  28  67 W20G31    29.82R WCI  28
MANISTEE       SUNNY     41  28  60 W20G25    29.92R
OSCODA         LGT RAIN  38  33  82 NW13G21   29.79R WCI  30
PELLSTON       FLURRIES  34  28  79 NW14G24   29.82R WCI  25
ROGERS CITY    PTSUNNY   33  31  92 W20G25    29.78R WCI  22
TRAVERSE CITY  CLOUDY    38  30  73 NW10      29.87R WCI  31
$$
MIZ007>008-015-301600-
EASTERN UPPER MICHIGAN

CITY           SKY/WX    TMP DP  RH WIND       PRES   REMARKS
KINROSS        CLOUDY    34  27  75 NW22G30   29.74R WCI  22
MACKINAC ISLAN CLOUDY    34  30  83 NW14G26   29.79R WCI  25
NEWBERRY       CLOUDY    32  24  73 NW14G20   29.81R WCI  22
S. S. MARIE    MIX PCPN  32  25  75 NW18G26   29.76R WCI  20
$$
MIZ004>006-011>014-085-301600-
CENTRAL UPPER MICHIGAN

CITY           SKY/WX    TMP DP  RH WIND       PRES   REMARKS
MANISTIQUE     CLOUDY    34  28  79 N17G23    29.84R WCI  24
ESCANABA       MOSUNNY   39  25  56 NW17G24   29.86R WCI  30
MENOMINEE      MOSUNNY   45  27  49 NW20G25   29.88R
SAWYER-GWINN   MOSUNNY   36  25  64 N15G23    29.84R WCI  26
$$
MIZ001>003-009>011-084-301600-
WESTERN UPPER MICHIGAN

CITY           SKY/WX    TMP DP  RH WIND       PRES   REMARKS
IRON MOUNTAIN  PTSUNNY   40  24  53 NW20G26   29.86R WCI  30
HOUGHTON       MOSUNNY   34  24  67 NW16      29.87R WCI  24
COPPER HARBOR    N/A     32  25  75 N14       29.88R WCI  22
IRONWOOD       SUNNY     39  27  60 NW12      29.88S WCI  32
$$

ABBREVIATIONS USED IN REMARKS
   TC - TEMPERATURE IN CELSIUS
  WCI - WIND CHILL INDEX
   HX - HEAT INDEX
  VSB - VISIBILITY




USA.gov is the U.S. government's official web portal to all federal, state and local government web resources and services.